FW2367 Weather Reports


time (UTC)temp
F
wind
direction
speed
knots
gust
knots
rain 1hr
in
rain 24hr
in
rain mn
in
humidity
%
barometer
mb
20260507201414 66 169 0.0 2.6 0.00 0.19 0.15 27 1007.9
20260507200416 66 180 2.6 4.3 0.00 0.19 0.15 27 1007.7
20260507194614 65 180 1.7 4.3 0.00 0.20 0.15 25 1008.1
20260507192615 65 138 0.9 4.3 0.00 0.20 0.15 27 1008.2
20260507191613 65 180 1.7 6.1 0.00 0.20 0.15 26 1008.2
20260507190613 65 180 2.6 6.1 0.00 0.20 0.15 25 1008.2
20260507184630 65 180 2.6 5.2 0.00 0.20 0.15 29 1008.4
20260507183716 65 180 3.5 5.2 0.00 0.20 0.15 30 1008.4
20260507181714 64 180 0.9 3.5 0.00 0.20 0.15 32 1008.7
20260507180714 64 180 3.5 9.6 0.00 0.20 0.15 32 1008.7
20260507175715 64 180 1.7 4.3 0.00 0.20 0.15 33 1008.9
20260507174715 64 180 3.5 7.0 0.00 0.20 0.15 34 1008.7
20260507172713 64 180 0.0 2.6 0.00 0.20 0.15 38 1008.9
20260507171716 64 180 0.9 4.3 0.00 0.20 0.15 39 1009.0
20260507170715 63 180 0.9 3.5 0.00 0.20 0.15 40 1009.0
20260507165714 62 180 0.0 3.5 0.00 0.20 0.15 42 1009.1
20260507164715 63 180 0.0 0.0 0.00 0.20 0.15 45 1009.3
20260507163716 61 180 0.9 3.5 0.00 0.20 0.15 47 1009.4
20260507160717 62 180 0.9 3.5 0.00 0.20 0.15 47 1009.8
20260507160614 62 177 0.0 2.6 0.00 0.20 0.15 47 1009.8
20260507155615 61 180 1.7 6.1 0.00 0.20 0.15 49 1009.8
20260507154712 61 180 3.5 5.2 0.00 0.20 0.15 49 1009.9
20260507153714 61 180 1.7 2.6 0.00 0.20 0.15 49 1009.9
20260507152713 61 180 1.7 8.7 0.00 0.20 0.15 48 1010.0
20260507151714 61 180 5.2 9.6 0.00 0.20 0.15 48 1010.0
20260507150714 62 172 0.0 1.7 0.00 0.20 0.15 48 1010.2
20260507145715 62 178 0.0 0.9 0.00 0.20 0.15 47 1010.3
20260507144715 61 151 0.0 0.0 0.00 0.20 0.15 46 1010.5
20260507143713 61 180 1.7 5.2 0.00 0.20 0.15 48 1010.6
20260507142716 60 180 0.0 3.5 0.00 0.20 0.15 50 1010.5
20260507141716 61 179 0.0 0.0 0.00 0.20 0.15 52 1010.5
20260507135714 60 173 0.9 2.6 0.00 0.20 0.15 55 1010.5
20260507134713 59 108 0.0 2.6 0.00 0.20 0.15 57 1010.7
20260507133715 59 146 0.0 1.7 0.00 0.20 0.15 61 1010.7
20260507132813 57 180 0.0 0.9 0.00 0.20 0.15 67 1010.6
20260507132716 57 180 0.9 2.6 0.00 0.20 0.15 68 1010.6
20260507131715 56 166 0.0 1.7 0.00 0.20 0.15 74 1010.9
20260507130814 55 180 0.0 0.0 0.00 0.20 0.15 80 1010.8
20260507124814 53 135 0.0 0.0 0.00 0.20 0.15 91 1011.1
20260507123814 51 172 0.0 0.0 0.00 0.20 0.15 91 1011.2
20260507122814 50 180 0.0 0.0 0.00 0.20 0.15 91 1011.2
20260507121913 50 180 0.0 0.0 0.00 0.20 0.15 92 1010.8
20260507121814 50 180 0.0 0.0 0.00 0.20 0.15 93 1010.9
20260507120913 50 180 0.0 0.0 0.00 0.20 0.15 92 1010.8
20260507115914 49 180 0.0 0.0 0.00 0.20 0.15 92 1010.8
20260507114913 49 180 0.0 0.0 0.00 0.20 0.15 92 1010.9
20260507113915 49 180 0.0 0.0 0.01 0.20 0.15 93 1010.9
20260507113012 49 180 0.0 0.0 0.01 0.20 0.15 92 1010.6
20260507112015 49 180 0.0 0.0 0.01 0.20 0.15 93 1010.6
20260507111013 49 180 0.0 0.0 0.01 0.20 0.15 93 1010.6
20260507104114 49 180 0.0 0.0 0.03 0.19 0.14 92 1010.9
20260507103113 49 180 0.0 2.6 0.05 0.19 0.14 92 1010.9
20260507101113 49 180 0.0 0.0 0.08 0.19 0.14 91 1010.6
20260507100114 49 180 0.0 0.0 0.09 0.19 0.14 91 1010.3
20260507095113 49 180 0.0 0.0 0.09 0.18 0.13 91 1010.1
20260507094212 49 180 0.0 0.0 0.09 0.17 0.11 90 1010.3
20260507093215 50 180 0.0 0.0 0.07 0.14 0.09 91 1010.1
20260507092215 50 180 0.0 0.0 0.06 0.13 0.08 90 1010.0
20260507091214 50 180 0.0 0.0 0.06 0.12 0.06 90 1010.2
20260507090214 51 180 0.0 0.0 0.04 0.10 0.05 89 1010.5
20260507085215 51 153 0.0 0.0 0.03 0.09 0.04 88 1010.3
20260507084214 51 180 0.0 2.6 0.03 0.08 0.03 88 1010.2
20260507083313 52 180 0.0 3.5 0.03 0.08 0.02 88 1009.9
20260507082413 53 180 0.0 0.0 0.02 0.07 0.02 88 1009.9
20260507081414 53 112 0.0 0.0 0.01 0.06 0.01 86 1009.8
20260507080414 53 180 0.0 0.0 0.01 0.06 0.01 86 1010.1
20260507075414 54 180 0.0 0.0 0.01 0.06 0.01 85 1009.7
20260507074414 54 180 0.0 0.0 0.00 0.05 0.00 84 1009.8
20260507073414 54 147 0.0 0.0 0.00 0.05 0.00 84 1009.6
20260507071514 55 180 0.0 0.0 0.00 0.05 0.00 85 1009.2
20260507070613 55 180 0.0 0.0 0.00 0.05 0.00 87 1009.2
20260507064713 56 180 0.0 0.0 0.00 0.05 0.00 88 1009.2
20260507063812 56 180 0.0 0.0 0.00 0.05 0.00 88 1009.3
20260507062816 56 180 0.0 0.0 0.00 0.05 0.00 88 1009.0
20260507061914 57 180 0.0 0.0 0.00 0.05 0.00 90 1008.9
20260507061012 57 180 0.0 0.0 0.00 0.05 0.00 90 1008.9
20260507055014 57 180 0.0 1.7 0.00 0.05 0.00 91 1009.3
20260507054015 58 180 0.0 0.0 0.00 0.05 0.00 92 1009.5
20260507053112 58 92 0.0 0.0 0.00 0.05 0.00 92 1009.4
20260507051116 59 180 0.0 0.9 0.00 0.05 0.00 94 1009.1
20260507050113 59 180 0.0 0.0 0.00 0.05 0.00 94 1009.2
20260507044213 59 180 2.6 6.1 0.00 0.05 0.00 95 1009.1
20260507043214 59 180 0.0 0.9 0.00 0.05 0.00 95 1009.0
20260507042312 59 180 0.0 0.0 0.00 0.05 0.00 95 1008.9
20260507042213 59 180 0.0 0.9 0.00 0.05 0.00 95 1008.9
20260507042112 59 180 0.0 3.5 0.00 0.05 0.00 95 1009.1
20260507041211 59 180 0.0 2.6 0.00 0.05 0.00 93 1009.2
20260507040216 59 180 0.9 3.5 0.00 0.05 0.00 94 1009.4
20260507035219 59 180 0.0 0.9 0.00 0.05 0.05 94 1009.3
20260507033219 60 180 1.7 6.1 0.00 0.05 0.05 93 1009.0
20260507032222 59 180 1.7 6.1 0.00 0.05 0.05 93 1008.9
20260507031220 59 180 2.6 7.8 0.00 0.05 0.05 93 1008.7
20260507030222 59 180 3.5 9.6 0.00 0.05 0.05 92 1008.7
20260507025220 59 180 2.6 5.2 0.00 0.05 0.05 92 1008.7
20260507024221 59 180 3.5 11.3 0.00 0.05 0.05 93 1008.9
20260507022320 59 180 2.6 9.6 0.00 0.05 0.05 93 1008.8
20260507021419 59 180 0.0 3.5 0.00 0.05 0.05 94 1008.7
20260507015519 59 180 0.9 6.1 0.00 0.05 0.05 94 1008.8
20260507014518 59 180 2.6 9.6 0.00 0.05 0.05 94 1008.9
20260507013522 59 172 0.0 3.5 0.00 0.05 0.05 94 1009.0
20260507012522 58 180 2.6 7.0 0.00 0.05 0.05 94 1009.1
20260507011520 58 180 0.0 2.6 0.00 0.05 0.05 93 1009.3
20260507010521 58 180 3.5 8.7 0.00 0.05 0.05 93 1009.3
20260507005619 58 180 1.7 7.0 0.00 0.05 0.05 94 1009.3
20260507004620 58 180 4.3 9.6 0.01 0.05 0.05 93 1009.5
20260507002621 58 180 2.6 11.3 0.02 0.05 0.05 93 1009.2
20260507001620 58 180 4.3 9.6 0.02 0.05 0.05 92 1009.1
20260507000619 58 180 4.3 9.6 0.02 0.05 0.05 93 1008.9
20260506235620 58 180 2.6 9.6 0.02 0.05 0.05 93 1009.0
20260506234620 58 180 4.3 7.0 0.01 0.04 0.04 93 1009.2
20260506233621 58 180 1.7 6.1 0.01 0.04 0.04 92 1008.9
20260506232621 58 180 0.0 5.2 0.01 0.03 0.03 92 1008.8
20260506230719 59 180 0.9 4.3 0.01 0.03 0.03 92 1009.0
20260506225721 59 180 1.7 7.0 0.01 0.03 0.03 92 1008.9
20260506223818 59 252 0.9 7.8 0.02 0.03 0.03 91 1009.2
20260506222821 59 239 4.3 11.3 0.01 0.02 0.02 91 1009.5
20260506221918 60 277 7.0 12.2 0.01 0.02 0.02 90 1009.3
20260506220922 60 248 1.7 7.8 0.01 0.02 0.02 90 1009.5
20260506220019 60 262 4.3 9.6 0.01 0.02 0.02 89 1009.6
20260506215021 60 254 0.0 2.6 0.01 0.02 0.02 88 1009.7
20260506214020 61 249 4.3 8.7 0.01 0.02 0.01 87 1009.8
20260506213019 61 238 6.1 10.4 0.00 0.01 0.01 85 1009.8
20260506210120 61 242 3.5 9.6 0.00 0.01 0.01 83 1010.0
20260506205219 62 234 4.3 11.3 0.00 0.01 0.01 82 1009.8
20260506204220 62 239 0.0 6.1 0.01 0.01 0.01 79 1010.1
20260506203319 63 227 2.6 7.0 0.01 0.01 0.01 78 1010.1
20260506202320 63 244 6.1 10.4 0.01 0.01 0.01 77 1010.0